Location: Hylvaty SDH
(49.9612°N, 16.4057°E)
Time: 12:18:08
(UTC+01:00)

Tiros 1 - Pass Details

Date: 08 October 2020
Orbit: 630 x 663 km, 48.4° (Epoch: 28 October)

Event Time Altitude Azimuth Distance (km) Brightness Sun altitude
Rises 16:11:17 0° 279° (W) 2,953 11.3 17.9°
Reaches altitude 10° 16:13:39 10° 275° (W) 2,047 10.7 17.6°
Maximum altitude 16:18:15 54° 199° (SSW) 793 8.4 17.0°
Drops below altitude 10° 16:22:53 10° 122° (ESE) 2,062 9.5 16.3°
Sets 16:25:16 0° 118° (ESE) 2,977 10.3 16.0°
